Погода в Антилохове

Россия / Ивановская область     56°30′29″N   41°08′27″E
темп.,
°C
ветер,
м/с
пор.,
м/с
влажн.,
%
обл.,
%
осадки,
мм/ч
давл.,
гПа
погр.,
м
29 января, сб
сб2900:00−9ююв41194100 0.3 1009409
03:00−9ююв41094100 0.7 1008392
06:00−9юв3895100 0.5 1007374
09:00−8юв3795100 1.0 1007310
12:00−7ююв3592100 0.2 1007346
15:00−6ююв2393100 0.3 1006306
18:00−10юв219982 0.1 100628
21:00−11ю119878 0.2 100627
30 января, вс
вс3000:00−15ю1110099 0.1 10059
03:00−15ю1199100 0.1 100418
06:00−13ю239895 0.1 100249
09:00−12ююв259899 0.2 100180
12:00−3ююв499299 0.1 999510
15:00−2ююв4991100 0.1 998721
18:00−3ююв51091100 0.1 999596
21:00−6ююв41192100 0.1 999420
31 января, пн
пн3100:00−7юв41194100 0.0 999386
03:00−7юв41195100 0.3 999441
06:00−7юв41195100 0.4 998447
09:00−6юв41195100 0.9 998447
12:00−4юв41094100 0.4 998476
15:00−2юв489399 0.5 997559
18:00−2юв41095100 0.1 997635
21:00−1юв41196100 0.6 995714
1 февраля, вт
вт100:00−1юв51297100 0.6 994775
03:00−1юв41097100 0.9 992631
06:00−2ю51195100 0.9 992707
09:00−3ю51195100 1.7 993695
12:00−3ююз61294100 0.6 994684
15:00−3юз61191100 0.9 996747
18:00−4ююз51295100 0.3 997774
21:00−5юз51294100 0.9 999719
2 февраля, ср
ср200:00−6юз51193100 0.3 1001541
03:00−8юз41194100 0.4 1004393
06:00−10ююз3995100 0.0 1005276
09:00−9ю3994100 0.1 1006384
12:00−7ю3893100 0.0 1006436
15:00−6ю3693100 0.1 1006459
18:00−8вюв1397100 0.0 100671
21:00−7з0097100 0.4 100530